Tracking 30743 objects as of 20-Jun-2025
HD Live streaming from Space Station
objects crossing your sky now

FENGYUN 1C DEB

Track FENGYUN 1C DEB now!
10-day predictions


NORAD ID: 30648
Int'l Code: 1999-025APF
Perigee: 725.4 km
Apogee: 772.6 km
Inclination: 98.6 °
Period: 99.7 minutes
Semi major axis: 7120 km
RCS: 0.034 m2 (small)
Launch date: May 10, 1999
Source: People's Republic of China (PRC)
Launch site: Taiyaun Space Center, China (TSC)

Note: This is SATELLITE DEBRIS
Your satellite tracking list
Your tracking list is empty




NASA's NSSDC Master Catalog

Two Line Element Set (TLE):
1 30648U 99025APF 25170.51107289  .00004574  00000-0  13138-2 0  9992
2 30648  98.6429 261.7491 0033130 295.8439  81.0949 14.45038660953196
Source of the keplerian elements: AFSPC